N1OTX Weather Reports


Display with metric or nautical units.
time (UTC)temp
F
wind
direction
speed
MPH
gust
MPH
rain 1hr
in
rain 24hr
in
rain mn
in
humidity
%
barometer
mb
20260831234021 69 0.0 0.0 0.00 0.00 0.00 72 1017.8
20260831233520 69 0.0 0.0 0.00 0.00 0.00 71 1017.8
20260831233020 69 0.0 0.0 0.00 0.00 0.00 70 1017.7
20260831232520 70 0.0 0.0 0.00 0.00 0.00 69 1017.8
20260831232020 70 0.0 0.0 0.00 0.00 0.00 71 1017.9
20260831231520 70 0.0 0.0 0.00 0.00 0.00 67 1017.9
20260831231019 71 0.0 0.0 0.00 0.00 0.00 66 1017.9
20260831230519 71 0.0 0.0 0.00 0.00 0.00 65 1017.9
20260831230019 71 0.0 0.0 0.00 0.00 0.00 64 1018.1
20260831225520 71 0.0 0.0 0.00 0.00 0.00 63 1018.0
20260831225020 71 0.0 0.0 0.00 0.00 0.00 64 1017.9
20260831224522 72 0.0 0.0 0.00 0.00 0.00 65 1018.0
20260831224020 72 0.0 0.0 0.00 0.00 0.00 64 1017.9
20260831223540 73 0.0 0.0 0.00 0.00 0.00 64 1018.1
20260831223020 73 188 0.0 1.0 0.00 0.00 0.00 61 1018.1
20260831222539 74 188 0.0 2.0 0.00 0.00 0.00 60 1018.1
20260831222019 74 196 1.0 6.0 0.00 0.00 0.00 58 1018.0
20260831221519 73 242 0.0 2.0 0.00 0.00 0.00 58 1018.1
20260831221020 74 0.0 1.0 0.00 0.00 0.00 60 1018.0
20260831220540 74 228 0.0 1.0 0.00 0.00 0.00 58 1018.0
20260831220040 75 220 0.0 2.0 0.00 0.00 0.00 55 1018.0
20260831215520 75 183 1.0 4.0 0.00 0.00 0.00 54 1017.8
20260831215020 76 184 1.0 3.0 0.00 0.00 0.00 53 1017.9
20260831214519 76 223 1.0 3.0 0.00 0.00 0.00 52 1017.8
20260831214019 76 262 1.0 3.0 0.00 0.00 0.00 53 1017.9
20260831213521 76 196 1.0 4.0 0.00 0.00 0.00 51 1018.0
20260831213041 76 175 3.0 7.0 0.00 0.00 0.00 51 1018.0
20260831212521 76 282 1.0 7.0 0.00 0.00 0.00 50 1018.1
20260831212020 76 221 2.0 4.0 0.00 0.00 0.00 52 1018.1
20260831211540 76 157 1.0 2.0 0.00 0.00 0.00 53 1018.1
20260831211020 76 253 0.0 2.0 0.00 0.00 0.00 54 1018.0
20260831210519 76 186 1.0 2.0 0.00 0.00 0.00 52 1018.1
20260831210019 76 260 0.0 2.0 0.00 0.00 0.00 53 1018.1
20260831205519 76 250 0.0 2.0 0.00 0.00 0.00 50 1018.1
20260831205021 76 248 0.0 2.0 0.00 0.00 0.00 50 1018.1
20260831204520 77 286 0.0 4.0 0.00 0.00 0.00 50 1018.1
20260831204020 76 186 1.0 8.0 0.00 0.00 0.00 47 1018.1
20260831203520 76 213 1.0 2.0 0.00 0.00 0.00 48 1018.2
20260831203020 76 320 1.0 3.0 0.00 0.00 0.00 48 1018.1
20260831202519 77 277 2.0 7.0 0.00 0.00 0.00 48 1018.0
20260831202040 77 184 1.0 4.0 0.00 0.00 0.00 47 1017.9
20260831201519 77 178 1.0 6.0 0.00 0.00 0.00 46 1018.1
20260831201019 78 204 1.0 3.0 0.00 0.00 0.00 45 1018.0
20260831200520 78 283 1.0 4.0 0.00 0.00 0.00 45 1018.1
20260831200020 78 188 1.0 4.0 0.00 0.00 0.00 45 1018.2
20260831195540 78 283 2.0 4.0 0.00 0.00 0.00 45 1018.2
20260831195020 78 57 1.0 6.0 0.00 0.00 0.00 45 1018.2
20260831194520 78 185 1.0 4.0 0.00 0.00 0.00 45 1018.3
20260831194020 77 354 1.0 4.0 0.00 0.00 0.00 44 1018.3
20260831193519 77 204 2.0 7.0 0.00 0.00 0.00 45 1018.4
20260831193019 77 3 1.0 3.0 0.00 0.00 0.00 45 1018.4
20260831192521 77 316 1.0 4.0 0.00 0.00 0.00 45 1018.5
20260831192020 78 260 1.0 4.0 0.00 0.00 0.00 47 1018.6
20260831191518 78 205 1.0 6.0 0.00 0.00 0.00 47 1018.5
20260831191040 78 192 2.0 6.0 0.00 0.00 0.00 46 1018.5
20260831190540 78 128 1.0 3.0 0.00 0.00 0.00 46 1018.6
20260831190039 78 77 0.0 3.0 0.00 0.00 0.00 44 1018.6
20260831185539 77 166 1.0 3.0 0.00 0.00 0.00 44 1018.6
20260831185039 77 332 1.0 3.0 0.00 0.00 0.00 45 1018.8
20260831184519 77 345 1.0 2.0 0.00 0.00 0.00 45 1018.8
20260831184041 77 18 0.0 1.0 0.00 0.00 0.00 46 1019.0
20260831183540 78 3 1.0 3.0 0.00 0.00 0.00 48 1019.0
20260831183022 78 337 1.0 3.0 0.00 0.00 0.00 44 1019.0
20260831182519 78 291 1.0 3.0 0.00 0.00 0.00 46 1019.1
20260831182019 78 44 0.0 3.0 0.00 0.00 0.00 41 1019.1
20260831181519 77 247 1.0 3.0 0.00 0.00 0.00 45 1019.1
20260831181019 78 44 1.0 3.0 0.00 0.00 0.00 44 1019.2
20260831180521 78 283 1.0 4.0 0.00 0.00 0.00 46 1019.1
20260831180020 78 159 1.0 3.0 0.00 0.00 0.00 44 1019.0
20260831175519 78 288 1.0 3.0 0.00 0.00 0.00 43 1019.1
20260831175019 78 181 2.0 4.0 0.00 0.00 0.00 43 1019.1
20260831174519 78 174 1.0 3.0 0.00 0.00 0.00 41 1019.2
20260831174021 78 85 1.0 4.0 0.00 0.00 0.00 42 1019.2
20260831173540 77 152 1.0 4.0 0.00 0.00 0.00 42 1019.3
20260831173020 78 82 1.0 3.0 0.00 0.00 0.00 42 1019.3
20260831172520 77 114 2.0 6.0 0.00 0.00 0.00 44 1019.4
20260831172020 77 118 3.0 6.0 0.00 0.00 0.00 45 1019.4
20260831171540 76 116 1.0 3.0 0.00 0.00 0.00 46 1019.5
20260831171019 76 349 0.0 3.0 0.00 0.00 0.00 49 1019.6
20260831170519 76 232 2.0 4.0 0.00 0.00 0.00 49 1019.6
20260831170019 76 119 1.0 2.0 0.00 0.00 0.00 49 1019.6
20260831165520 76 73 1.0 3.0 0.00 0.00 0.00 43 1019.7
20260831165040 76 353 1.0 3.0 0.00 0.00 0.00 49 1019.8
20260831164520 76 62 0.0 1.0 0.00 0.00 0.00 47 1019.8
20260831164020 75 112 0.0 1.0 0.00 0.00 0.00 48 1019.8
20260831163520 76 87 0.0 1.0 0.00 0.00 0.00 47 1019.7
20260831163019 75 357 0.0 2.0 0.00 0.00 0.00 50 1019.8
20260831162519 75 55 1.0 3.0 0.00 0.00 0.00 45 1020.0
20260831162039 75 65 1.0 3.0 0.00 0.00 0.00 46 1020.0
20260831161521 75 314 0.0 2.0 0.00 0.00 0.00 47 1020.0
20260831161020 76 308 1.0 2.0 0.00 0.00 0.00 44 1020.0
20260831160521 76 34 1.0 3.0 0.00 0.00 0.00 47 1020.1
20260831160020 76 245 1.0 3.0 0.00 0.00 0.00 48 1020.2
20260831155520 75 217 1.0 3.0 0.00 0.00 0.00 47 1020.2
20260831155019 75 253 1.0 3.0 0.00 0.00 0.00 49 1020.2
20260831154519 75 93 2.0 8.0 0.00 0.00 0.00 47 1020.2
20260831154019 75 92 3.0 8.0 0.00 0.00 0.00 49 1020.3
20260831153519 75 119 2.0 3.0 0.00 0.00 0.00 54 1020.3
20260831153021 75 240 1.0 1.0 0.00 0.00 0.00 52 1020.4
20260831152520 75 140 1.0 4.0 0.00 0.00 0.00 52 1020.4
20260831152020 74 115 3.0 8.0 0.00 0.00 0.00 50 1020.5
20260831151520 74 89 2.0 4.0 0.00 0.00 0.00 52 1020.5
20260831151020 74 51 1.0 4.0 0.00 0.00 0.00 51 1020.5
20260831150520 74 150 1.0 4.0 0.00 0.00 0.00 50 1020.3
20260831150019 74 150 2.0 4.0 0.00 0.00 0.00 52 1020.5
20260831145519 72 174 1.0 3.0 0.00 0.00 0.00 58 1020.5
20260831145019 72 160 1.0 1.0 0.00 0.00 0.00 53 1020.4
20260831144521 73 160 1.0 2.0 0.00 0.00 0.00 53 1020.6
20260831144020 72 93 1.0 3.0 0.00 0.00 0.00 52 1020.7
20260831143540 72 75 0.0 3.0 0.00 0.00 0.00 51 1020.7
20260831143100 73 66 1.0 3.0 0.00 0.00 0.00 56 1020.7
20260831142520 73 140 0.0 2.0 0.00 0.00 0.00 50 1020.5
20260831142020 73 158 1.0 4.0 0.00 0.00 0.00 50 1020.5
20260831141519 73 114 2.0 4.0 0.00 0.00 0.00 51 1020.4
20260831141024 72 130 1.0 4.0 0.00 0.00 0.00 55 1020.4
20260831140519 72 124 2.0 6.0 0.00 0.00 0.00 54 1020.4
20260831140021 72 108 2.0 6.0 0.00 0.00 0.00 56 1020.4
20260831135520 72 94 2.0 6.0 0.00 0.00 0.00 51 1020.5
20260831135020 72 112 1.0 4.0 0.00 0.00 0.00 56 1020.6
20260831134520 71 94 2.0 6.0 0.00 0.00 0.00 56 1020.4
20260831134059 71 118 3.0 7.0 0.00 0.00 0.00 58 1020.5
20260831133519 70 128 1.0 3.0 0.00 0.00 0.00 63 1020.4
20260831133019 70 92 1.0 2.0 0.00 0.00 0.00 62 1020.4
20260831132520 70 343 0.0 2.0 0.00 0.00 0.00 60 1020.4
20260831132019 70 82 0.0 2.0 0.00 0.00 0.00 62 1020.4
20260831131520 69 85 1.0 2.0 0.00 0.00 0.00 61 1020.4
20260831131020 69 90 2.0 6.0 0.00 0.00 0.00 63 1020.5
20260831130520 69 86 2.0 4.0 0.00 0.00 0.00 63 1020.4
20260831130020 68 75 2.0 4.0 0.00 0.00 0.00 65 1020.3
20260831125520 68 10 0.0 2.0 0.00 0.00 0.00 66 1020.3
20260831125100 68 15 0.0 2.0 0.00 0.00 0.00 64 1020.4
20260831124519 69 67 2.0 4.0 0.00 0.00 0.00 64 1020.5
20260831124019 69 101 2.0 7.0 0.00 0.00 0.00 66 1020.5
20260831123519 69 111 2.0 4.0 0.00 0.00 0.00 68 1020.4
20260831123021 68 110 3.0 8.0 0.00 0.00 0.00 68 1020.2
20260831122520 67 82 2.0 7.0 0.00 0.00 0.00 71 1020.3
20260831122040 67 53 1.0 3.0 0.00 0.00 0.00 75 1020.2
20260831121520 66 11 0.0 2.0 0.00 0.00 0.00 76 1020.2
20260831121020 66 52 0.0 2.0 0.00 0.00 0.00 76 1020.2
20260831120519 66 12 0.0 1.0 0.00 0.00 0.00 78 1020.2
20260831120019 66 45 0.0 1.0 0.00 0.00 0.00 79 1020.1
20260831115519 65 68 0.0 1.0 0.00 0.00 0.00 81 1020.0
20260831115019 65 68 0.0 1.0 0.00 0.00 0.00 82 1019.9
20260831114520 65 68 0.0 1.0 0.00 0.00 0.00 83 1020.0
20260831114020 65 81 0.0 2.0 0.00 0.00 0.00 85 1019.9
20260831113520 64 167 0.0 1.0 0.00 0.00 0.00 89 1019.9
20260831113021 63 167 1.0 1.0 0.00 0.00 0.00 93 1019.9
20260831112520 61 0.0 0.0 0.00 0.00 0.00 96 1019.7
20260831112019 60 0.0 0.0 0.00 0.00 0.00 97 1019.8
20260831111519 60 0.0 0.0 0.00 0.00 0.00 99 1019.8
20260831111019 59 0.0 0.0 0.00 0.00 0.00 99 1019.6
20260831110539 59 0.0 0.0 0.00 0.00 0.00 99 1019.7
20260831110020 58 0.0 0.0 0.00 0.00 0.00 98 1019.6
20260831105520 58 0.0 0.0 0.00 0.00 0.00 98 1019.5
20260831105040 58 0.0 0.0 0.00 0.00 0.00 98 1019.6
20260831104520 58 0.0 0.0 0.00 0.00 0.00 98 1019.5
20260831104019 58 0.0 0.0 0.00 0.00 0.00 98 1019.6
20260831103519 58 0.0 0.0 0.00 0.00 0.00 98 1019.6
20260831103019 58 0.0 0.0 0.00 0.00 0.00 98 1019.3
20260831102519 58 0.0 0.0 0.00 0.00 0.00 98 1019.4
20260831102018 58 0.0 0.0 0.00 0.00 0.00 97 1019.3
20260831101520 58 0.0 0.0 0.00 0.00 0.00 97 1019.2
20260831101020 58 0.0 0.0 0.00 0.00 0.00 97 1019.2
20260831100520 59 0.0 0.0 0.00 0.00 0.00 97 1019.1
20260831100019 59 0.0 0.0 0.00 0.00 0.00 98 1019.1
20260831095519 59 0.0 0.0 0.00 0.00 0.00 97 1019.0
20260831095019 59 0.0 0.0 0.00 0.00 0.00 97 1019.0
20260831094519 59 0.0 0.0 0.00 0.00 0.00 97 1018.9
20260831094018 59 0.0 0.0 0.00 0.00 0.00 97 1018.9
20260831093601 59 0.0 0.0 0.00 0.00 0.00 97 1018.8
20260831093020 59 0.0 0.0 0.00 0.00 0.00 96 1018.7
20260831092520 60 0.0 0.0 0.00 0.00 0.00 96 1018.7
20260831092019 60 0.0 0.0 0.00 0.00 0.00 96 1018.6
20260831091520 60 0.0 0.0 0.00 0.00 0.00 96 1018.5
20260831091019 60 0.0 0.0 0.00 0.00 0.00 96 1018.5
20260831090519 60 0.0 0.0 0.00 0.00 0.00 95 1018.5
20260831090019 60 0.0 0.0 0.00 0.00 0.00 95 1018.5
20260831085521 61 0.0 0.0 0.00 0.00 0.00 95 1018.4
20260831085020 61 0.0 0.0 0.00 0.00 0.00 95 1018.1
20260831084520 61 0.0 0.0 0.00 0.00 0.00 95 1018.2
20260831084020 61 0.0 0.0 0.00 0.00 0.00 95 1018.1
20260831083520 61 0.0 0.0 0.00 0.00 0.00 95 1018.2
20260831083019 61 0.0 0.0 0.00 0.00 0.00 94 1018.2
20260831082540 61 0.0 0.0 0.00 0.00 0.00 94 1018.1
20260831082039 61 0.0 0.0 0.00 0.00 0.00 94 1018.0
20260831081521 61 0.0 0.0 0.00 0.00 0.00 93 1018.0
20260831081020 62 0.0 0.0 0.00 0.00 0.00 93 1018.0
20260831080520 62 0.0 0.0 0.00 0.00 0.00 93 1018.0
20260831080040 62 0.0 0.0 0.00 0.00 0.00 93 1017.8
20260831075520 62 0.0 0.0 0.00 0.00 0.00 92 1017.7
20260831075020 62 0.0 0.0 0.00 0.00 0.00 91 1017.7
20260831074520 62 0.0 0.0 0.00 0.00 0.00 91 1017.6
20260831074019 63 0.0 0.0 0.00 0.00 0.00 91 1017.6
20260831073519 63 0.0 0.0 0.00 0.00 0.00 91 1017.6
20260831073023 63 0.0 0.0 0.00 0.00 0.00 90 1017.6
20260831072540 63 0.0 0.0 0.00 0.00 0.00 90 1017.5
20260831072020 63 0.0 0.0 0.00 0.00 0.00 89 1017.5
20260831071520 63 0.0 0.0 0.00 0.00 0.00 89 1017.5
20260831071019 64 0.0 0.0 0.00 0.00 0.00 88 1017.6
20260831070519 64 0.0 0.0 0.00 0.00 0.00 87 1017.5
20260831070019 64 0.0 0.0 0.00 0.00 0.00 87 1017.5
20260831065519 65 0.0 0.0 0.00 0.00 0.00 86 1017.7
20260831065020 65 0.0 0.0 0.00 0.00 0.00 86 1017.7
20260831064520 65 168 0.0 1.0 0.00 0.00 0.00 86 1017.6
20260831064020 65 168 0.0 1.0 0.00 0.00 0.00 86 1017.6
20260831063520 65 0.0 0.0 0.00 0.00 0.00 87 1017.6
20260831063021 65 0.0 0.0 0.00 0.00 0.00 87 1017.6
20260831062519 65 0.0 0.0 0.00 0.00 0.00 86 1017.4
20260831062019 65 0.0 0.0 0.00 0.00 0.00 86 1017.4
20260831061521 66 0.0 0.0 0.00 0.00 0.00 85 1017.5
20260831061020 66 0.0 0.0 0.00 0.00 0.00 85 1017.4
20260831060520 66 0.0 0.0 0.00 0.00 0.00 85 1017.3
20260831060020 66 0.0 0.0 0.00 0.00 0.00 84 1017.3
20260831055519 66 0.0 0.0 0.00 0.00 0.00 84 1017.4
20260831055020 66 0.0 0.0 0.00 0.00 0.00 83 1017.2
20260831054519 66 0.0 0.0 0.00 0.00 0.00 83 1017.3
20260831054019 66 0.0 0.0 0.00 0.00 0.00 83 1017.3
20260831053519 67 0.0 0.0 0.00 0.00 0.00 82 1017.2
20260831053021 67 0.0 0.0 0.00 0.00 0.00 82 1017.1
20260831052520 67 0.0 0.0 0.00 0.00 0.00 81 1017.1
20260831052020 67 0.0 0.0 0.00 0.00 0.00 81 1017.0
20260831051520 68 0.0 0.0 0.00 0.00 0.00 80 1016.9
20260831051020 68 0.0 0.0 0.00 0.00 0.00 80 1016.9
20260831050519 68 0.0 0.0 0.00 0.00 0.00 79 1016.9
20260831050019 69 0.0 1.0 0.00 0.00 0.00 78 1017.0
20260831045519 69 168 0.0 1.0 0.00 0.00 0.00 77 1017.0
20260831045018 69 0.0 0.0 0.00 0.00 0.00 77 1016.9
20260831044519 70 168 0.0 1.0 0.00 0.00 0.00 77 1016.8
20260831044020 70 168 0.0 1.0 0.00 0.00 0.00 77 1016.7
20260831043520 70 168 0.0 1.0 0.00 0.00 0.00 78 1016.6
20260831043020 69 168 0.0 1.0 0.00 0.00 0.00 78 1016.8
20260831042520 69 168 0.0 1.0 0.00 0.00 0.00 79 1016.7
20260831042200 70 0.0 1.0 0.00 0.00 0.00 78 1016.7
20260831041519 70 0.0 0.0 0.00 0.00 0.00 78 1016.8
20260831041019 70 0.0 0.0 0.00 0.00 0.00 76 1016.7
20260831040519 71 0.0 0.0 0.00 0.00 0.00 77 1016.7
20260831040020 71 0.0 1.0 0.00 0.00 0.00 77 1016.7
20260831035520 71 168 0.0 1.0 0.00 0.00 0.00 77 1016.6
20260831035021 71 0.0 0.0 0.00 0.00 0.00 77 1016.6
20260831034520 71 0.0 0.0 0.00 0.00 0.00 77 1016.6
20260831034020 71 177 0.0 1.0 0.00 0.00 0.00 79 1016.6
20260831033519 71 184 0.0 1.0 0.00 0.00 0.00 79 1016.6
20260831033019 71 200 0.0 1.0 0.00 0.00 0.00 80 1016.6
20260831032519 71 225 0.0 1.0 0.00 0.00 0.00 80 1016.7
20260831032019 71 224 0.0 1.0 0.00 0.00 0.00 80 1016.5
20260831031541 71 224 0.0 1.0 0.00 0.00 0.00 81 1016.6
20260831031018 71 242 0.0 1.0 0.00 0.00 0.00 81 1016.6
20260831030520 71 250 0.0 1.0 0.00 0.00 0.00 80 1016.6
20260831030020 71 250 0.0 1.0 0.00 0.00 0.00 79 1016.6
20260831025520 71 252 0.0 3.0 0.00 0.00 0.00 80 1016.4
20260831025019 71 0.0 1.0 0.00 0.00 0.00 79 1016.6
20260831024519 71 0.0 1.0 0.00 0.00 0.00 79 1016.7
20260831024019 71 0.0 0.0 0.00 0.00 0.00 79 1016.5
20260831023519 71 0.0 1.0 0.00 0.00 0.00 78 1016.6
20260831023018 72 280 0.0 2.0 0.00 0.00 0.00 78 1016.5
20260831022538 72 279 0.0 2.0 0.00 0.00 0.00 76 1016.6
20260831022040 72 227 0.0 2.0 0.00 0.00 0.00 76 1016.6
20260831021520 72 148 0.0 1.0 0.00 0.00 0.00 75 1016.6
20260831021019 73 0.0 1.0 0.00 0.00 0.00 74 1016.5
20260831020519 73 158 0.0 1.0 0.00 0.00 0.00 74 1016.6
20260831020021 73 0.0 1.0 0.00 0.00 0.00 73 1016.5
20260831015521 73 234 0.0 1.0 0.00 0.00 0.00 72 1016.4
20260831015041 73 202 0.0 2.0 0.00 0.00 0.00 71 1016.4
20260831014520 73 238 1.0 2.0 0.00 0.00 0.00 71 1016.4
20260831014020 73 10 0.0 2.0 0.00 0.00 0.00 71 1016.4
20260831013601 73 282 1.0 3.0 0.00 0.00 0.00 71 1016.2
20260831013020 73 177 1.0 3.0 0.00 0.00 0.00 71 1016.2
20260831012519 73 134 1.0 4.0 0.00 0.00 0.00 70 1016.2
20260831012019 73 299 0.0 3.0 0.00 0.00 0.00 70 1016.0
20260831011521 74 293 0.0 1.0 0.00 0.00 0.00 70 1016.0
20260831011020 74 244 0.0 2.0 0.00 0.00 0.00 69 1016.1
20260831010519 74 127 0.0 2.0 0.00 0.00 0.00 69 1016.1
20260831010019 74 268 1.0 4.0 0.00 0.00 0.00 68 1016.1
20260831005519 74 194 1.0 4.0 0.00 0.00 0.00 69 1016.0
20260831005021 74 334 0.0 4.0 0.00 0.00 0.00 68 1015.9
20260831004521 74 301 1.0 3.0 0.00 0.00 0.00 67 1015.9
20260831004040 74 132 1.0 3.0 0.00 0.00 0.00 67 1015.9
20260831003540 74 226 1.0 4.0 0.00 0.00 0.00 66 1015.8
20260831003020 74 183 1.0 4.0 0.00 0.00 0.00 66 1015.8
20260831002520 74 182 1.0 6.0 0.00 0.00 0.00 66 1015.8
20260831002020 74 224 2.0 4.0 0.00 0.00 0.00 65 1015.7
20260831001539 74 187 1.0 7.0 0.00 0.00 0.00 65 1015.5
20260831001101 74 186 1.0 7.0 0.00 0.00 0.00 65 1015.7
20260831000521 75 240 1.0 3.0 0.00 0.00 0.00 64 1015.6
20260831000020 75 198 1.0 3.0 0.00 0.00 0.00 64 1015.5